Zurück zum Katalog

STARLINK-35021

AktivKommunikationSSO
NORAD 65282·PAYLOAD·🇺🇸 United States

Gestartet Aug 22, 2025 von Vandenberg Space Force Base

Loading…

Nächste Überflüge (nächste 24 Stunden)

TLE

AktuellSource: CelesTrak SupGP

Epoche: Sep 15, 2026, 03:47 UTC

1 65282C 25184K   26258.15812500  .00000489  00000+0  15181-4 0  2586
2 65282  97.2837 306.1652 0000858  82.0481 259.7050 15.33447793    13

Verfolge STARLINK-35021 in Echtzeit mit AllMySat

Download on the App Store